Time,TemperatureF,DewpointF,PressureIn,WindDirection,WindDirectionDegrees,WindSpeedMPH,WindSpeedGustMPH,Humidity,HourlyPrecipIn,Conditions,Clouds,dailyrainin,SolarRadiationWatts/m^2,SoftwareType,DateUTC
2013-06-10 00:01:00,57.7,40.2,29.98,South,173,0.0,0.0,52,0.00,,,0.00,0,LWC V2.00 B727,2013-06-10 06:01:00,
2013-06-10 00:06:00,57.4,40.4,29.98,South,174,1.0,3.0,53,0.00,,,0.00,0,LWC V2.00 B727,2013-06-10 06:06:00,
2013-06-10 00:11:00,57.2,40.2,29.98,South,171,0.0,1.0,53,0.00,,,0.00,0,LWC V2.00 B727,2013-06-10 06:11:00,
2013-06-10 00:16:00,56.9,40.4,29.98,South,171,0.0,0.0,54,0.00,,,0.00,0,LWC V2.00 B727,2013-06-10 06:16:00,
2013-06-10 00:21:00,56.7,40.2,29.98,South,171,0.0,0.0,54,0.00,,,0.00,0,LWC V2.00 B727,2013-06-10 06:21:00,
2013-06-10 00:26:00,56.5,40.1,29.98,South,171,0.0,3.0,54,0.00,,,0.00,0,LWC V2.00 B727,2013-06-10 06:26:00,
2013-06-10 00:31:00,56.3,40.3,29.98,South,171,0.0,0.0,55,0.00,,,0.00,0,LWC V2.00 B727,2013-06-10 06:31:00,
2013-06-10 00:36:00,56.0,40.1,29.98,South,171,0.0,0.0,55,0.00,,,0.00,0,LWC V2.00 B727,2013-06-10 06:36:00,
2013-06-10 00:41:00,55.9,40.0,29.98,South,171,0.0,0.0,55,0.00,,,0.00,0,LWC V2.00 B727,2013-06-10 06:41:00,
2013-06-10 00:46:00,55.6,39.7,29.98,South,171,1.0,2.0,55,0.00,,,0.00,0,LWC V2.00 B727,2013-06-10 06:46:00,
2013-06-10 00:51:00,55.4,39.5,29.99,South,171,1.0,2.0,55,0.00,,,0.00,0,LWC V2.00 B727,2013-06-10 06:51:00,
2013-06-10 00:56:00,55.1,39.7,29.99,SE,140,0.0,3.0,56,0.00,,,0.00,0,LWC V2.00 B727,2013-06-10 06:56:00,
2013-06-10 01:01:00,55.1,39.7,29.99,SE,142,0.0,0.0,56,0.00,,,0.00,0,LWC V2.00 B727,2013-06-10 07:01:00,
2013-06-10 01:06:00,55.0,39.6,29.99,SE,141,0.0,1.0,56,0.00,,,0.00,0,LWC V2.00 B727,2013-06-10 07:06:00,
2013-06-10 01:11:00,54.8,39.9,29.99,SE,142,2.0,2.0,57,0.00,,,0.00,0,LWC V2.00 B727,2013-06-10 07:11:00,
2013-06-10 01:16:00,54.7,39.8,29.99,SE,142,0.0,0.0,57,0.00,,,0.00,0,LWC V2.00 B727,2013-06-10 07:16:00,
2013-06-10 01:21:00,54.9,39.5,29.99,SE,142,0.0,2.0,56,0.00,,,0.00,0,LWC V2.00 B727,2013-06-10 07:21:00,
2013-06-10 01:26:00,54.9,39.5,29.99,SE,142,0.0,1.0,56,0.00,,,0.00,0,LWC V2.00 B727,2013-06-10 07:26:00,
2013-06-10 01:31:00,54.9,39.5,29.99,SE,142,0.0,0.0,56,0.00,,,0.00,0,LWC V2.00 B727,2013-06-10 07:31:00,
2013-06-10 01:36:00,54.7,39.3,29.99,SE,146,0.0,3.0,56,0.00,,,0.00,0,LWC V2.00 B727,2013-06-10 07:36:00,
2013-06-10 01:41:00,54.8,39.4,29.99,SSE,154,3.0,4.0,56,0.00,,,0.00,0,LWC V2.00 B727,2013-06-10 07:41:00,
2013-06-10 01:46:00,54.8,39.9,29.99,SSE,155,0.0,1.0,57,0.00,,,0.00,0,LWC V2.00 B727,2013-06-10 07:46:00,
2013-06-10 01:51:00,54.8,39.9,29.99,SSE,155,0.0,0.0,57,0.00,,,0.00,0,LWC V2.00 B727,2013-06-10 07:51:00,
2013-06-10 01:56:00,55.0,39.6,29.99,SSE,155,1.0,1.0,56,0.00,,,0.00,0,LWC V2.00 B727,2013-06-10 07:56:00,
2013-06-10 02:01:00,55.1,39.7,29.99,SSE,155,0.0,2.0,56,0.00,,,0.00,0,LWC V2.00 B727,2013-06-10 08:01:00,
2013-06-10 02:06:00,55.1,39.7,29.99,SSE,155,0.0,1.0,56,0.00,,,0.00,0,LWC V2.00 B727,2013-06-10 08:06:00,
2013-06-10 02:11:00,55.4,40.0,29.99,SSE,155,1.0,1.0,56,0.00,,,0.00,0,LWC V2.00 B727,2013-06-10 08:11:00,
2013-06-10 02:16:00,55.3,39.4,29.99,SSE,155,0.0,2.0,55,0.00,,,0.00,0,LWC V2.00 B727,2013-06-10 08:16:00,
2013-06-10 02:21:00,55.3,39.9,29.99,SSE,155,0.0,0.0,56,0.00,,,0.00,0,LWC V2.00 B727,2013-06-10 08:21:00,
2013-06-10 02:26:00,55.1,39.7,29.99,SSE,155,0.0,1.0,56,0.00,,,0.00,0,LWC V2.00 B727,2013-06-10 08:26:00,
2013-06-10 02:31:00,55.0,40.0,29.99,SSE,155,0.0,0.0,57,0.00,,,0.00,0,LWC V2.00 B727,2013-06-10 08:31:00,
2013-06-10 02:36:00,54.8,39.9,29.99,SSE,155,0.0,1.0,57,0.00,,,0.00,0,LWC V2.00 B727,2013-06-10 08:36:00,
2013-06-10 02:41:00,54.7,39.8,29.99,SSE,155,0.0,1.0,57,0.00,,,0.00,0,LWC V2.00 B727,2013-06-10 08:41:00,
2013-06-10 02:46:00,54.6,39.7,29.99,SSE,155,0.0,1.0,57,0.00,,,0.00,0,LWC V2.00 B727,2013-06-10 08:46:00,
2013-06-10 02:51:00,54.6,39.7,29.99,SSE,155,0.0,2.0,57,0.00,,,0.00,0,LWC V2.00 B727,2013-06-10 08:51:00,
2013-06-10 02:56:00,54.5,39.6,29.99,SSE,155,0.0,1.0,57,0.00,,,0.00,0,LWC V2.00 B727,2013-06-10 08:56:00,
2013-06-10 03:01:00,54.4,39.9,29.99,SSE,155,0.0,0.0,58,0.00,,,0.00,0,LWC V2.00 B727,2013-06-10 09:01:00,
2013-06-10 03:06:00,54.2,40.2,29.99,SSE,157,0.0,0.0,59,0.00,,,0.00,0,LWC V2.00 B727,2013-06-10 09:06:00,
2013-06-10 03:11:00,53.9,39.9,29.99,SSE,165,0.0,0.0,59,0.00,,,0.00,0,LWC V2.00 B727,2013-06-10 09:11:00,
2013-06-10 03:16:00,53.8,39.8,29.99,SSE,165,0.0,1.0,59,0.00,,,0.00,0,LWC V2.00 B727,2013-06-10 09:16:00,
2013-06-10 03:21:00,53.7,39.7,29.99,SSE,166,1.0,3.0,59,0.00,,,0.00,0,LWC V2.00 B727,2013-06-10 09:21:00,
2013-06-10 03:26:00,53.6,39.6,29.99,South,169,2.0,3.0,59,0.00,,,0.00,0,LWC V2.00 B727,2013-06-10 09:26:00,
2013-06-10 03:31:00,53.7,39.7,29.99,SSE,167,2.0,3.0,59,0.00,,,0.00,0,LWC V2.00 B727,2013-06-10 09:31:00,
2013-06-10 03:36:00,53.9,39.9,30.00,SSE,167,1.0,2.0,59,0.00,,,0.00,0,LWC V2.00 B727,2013-06-10 09:36:00,
2013-06-10 03:41:00,54.0,40.0,30.00,SSE,167,0.0,1.0,59,0.00,,,0.00,0,LWC V2.00 B727,2013-06-10 09:41:00,
2013-06-10 03:46:00,54.1,40.1,30.00,SSE,167,1.0,1.0,59,0.00,,,0.00,0,LWC V2.00 B727,2013-06-10 09:46:00,
2013-06-10 03:51:00,54.2,40.2,29.99,SSE,167,0.0,0.0,59,0.00,,,0.00,0,LWC V2.00 B727,2013-06-10 09:51:00,
2013-06-10 03:56:00,54.1,40.1,29.99,SSE,167,0.0,0.0,59,0.00,,,0.00,0,LWC V2.00 B727,2013-06-10 09:56:00,
2013-06-10 04:01:00,54.0,40.0,29.99,South,184,1.0,2.0,59,0.00,,,0.00,0,LWC V2.00 B727,2013-06-10 10:01:00,
2013-06-10 04:06:00,53.9,39.9,29.99,South,184,0.0,1.0,59,0.00,,,0.00,0,LWC V2.00 B727,2013-06-10 10:06:00,
2013-06-10 04:11:00,53.9,40.3,29.99,South,185,0.0,0.0,60,0.00,,,0.00,0,LWC V2.00 B727,2013-06-10 10:11:00,
2013-06-10 04:16:00,53.8,40.2,30.00,South,185,2.0,2.0,60,0.00,,,0.00,0,LWC V2.00 B727,2013-06-10 10:16:00,
2013-06-10 04:21:00,53.7,40.1,29.99,South,184,0.0,0.0,60,0.00,,,0.00,0,LWC V2.00 B727,2013-06-10 10:21:00,
2013-06-10 04:26:00,53.6,40.1,29.99,South,184,0.0,0.0,60,0.00,,,0.00,0,LWC V2.00 B727,2013-06-10 10:26:00,
2013-06-10 04:31:00,53.6,40.5,29.99,South,180,0.0,1.0,61,0.00,,,0.00,0,LWC V2.00 B727,2013-06-10 10:31:00,
2013-06-10 04:36:00,53.7,40.6,29.99,South,178,0.0,1.0,61,0.00,,,0.00,0,LWC V2.00 B727,2013-06-10 10:36:00,
2013-06-10 04:41:00,53.7,40.6,29.99,SSE,167,0.0,2.0,61,0.00,,,0.00,0,LWC V2.00 B727,2013-06-10 10:41:00,
2013-06-10 04:46:00,53.8,40.7,29.99,SSE,168,0.0,2.0,61,0.00,,,0.00,0,LWC V2.00 B727,2013-06-10 10:46:00,
2013-06-10 04:51:00,53.8,40.7,29.99,SSE,168,0.0,0.0,61,0.00,,,0.00,0,LWC V2.00 B727,2013-06-10 10:51:00,
2013-06-10 04:56:00,53.7,40.6,29.99,SSE,168,2.0,2.0,61,0.00,,,0.00,0,LWC V2.00 B727,2013-06-10 10:56:00,
2013-06-10 05:01:00,53.6,40.9,29.99,SSE,168,0.0,2.0,62,0.00,,,0.00,0,LWC V2.00 B727,2013-06-10 11:01:00,
2013-06-10 05:06:00,53.6,40.9,30.00,South,169,3.0,3.0,62,0.00,,,0.00,0,LWC V2.00 B727,2013-06-10 11:06:00,
2013-06-10 05:11:00,53.5,40.8,30.00,South,171,1.0,3.0,62,0.00,,,0.00,0,LWC V2.00 B727,2013-06-10 11:11:00,
2013-06-10 05:16:00,53.4,41.1,29.99,South,169,0.0,1.0,63,0.00,,,0.00,0,LWC V2.00 B727,2013-06-10 11:16:00,
2013-06-10 05:21:00,53.5,40.8,30.00,SSE,167,1.0,2.0,62,0.00,,,0.00,0,LWC V2.00 B727,2013-06-10 11:21:00,
2013-06-10 05:26:00,53.6,40.9,30.00,SSE,167,0.0,1.0,62,0.00,,,0.00,0,LWC V2.00 B727,2013-06-10 11:26:00,
2013-06-10 05:31:00,53.9,41.2,30.00,SSE,167,0.0,2.0,62,0.00,,,0.00,0,LWC V2.00 B727,2013-06-10 11:31:00,
2013-06-10 05:36:00,54.0,41.3,30.00,SSE,167,0.0,2.0,62,0.00,,,0.00,0,LWC V2.00 B727,2013-06-10 11:36:00,
2013-06-10 05:41:00,54.1,41.4,30.00,SSE,161,0.0,2.0,62,0.00,,,0.00,0,LWC V2.00 B727,2013-06-10 11:41:00,
2013-06-10 05:46:00,54.1,41.4,30.00,SSE,160,0.0,1.0,62,0.00,,,0.00,0,LWC V2.00 B727,2013-06-10 11:46:00,
2013-06-10 05:51:00,54.1,41.4,30.00,SSE,161,0.0,1.0,62,0.00,,,0.00,7,LWC V2.00 B727,2013-06-10 11:51:00,
2013-06-10 05:56:00,54.0,41.3,30.00,SSE,161,0.0,1.0,62,0.00,,,0.00,9,LWC V2.00 B727,2013-06-10 11:56:00,
2013-06-10 06:01:00,53.9,41.2,30.00,SSE,161,0.0,1.0,62,0.00,,,0.00,11,LWC V2.00 B727,2013-06-10 12:01:00,
2013-06-10 06:06:00,53.9,41.6,30.00,SSE,161,0.0,0.0,63,0.00,,,0.00,14,LWC V2.00 B727,2013-06-10 12:06:00,
2013-06-10 06:11:00,53.8,41.5,30.00,SSE,161,0.0,1.0,63,0.00,,,0.00,16,LWC V2.00 B727,2013-06-10 12:11:00,
2013-06-10 06:16:00,54.0,41.7,30.00,SSE,160,0.0,2.0,63,0.00,,,0.00,18,LWC V2.00 B727,2013-06-10 12:16:00,
2013-06-10 06:21:00,54.1,41.8,30.00,SSE,160,0.0,1.0,63,0.00,,,0.00,19,LWC V2.00 B727,2013-06-10 12:21:00,
2013-06-10 06:26:00,54.4,42.5,30.00,SSE,161,1.0,2.0,64,0.00,,,0.00,23,LWC V2.00 B727,2013-06-10 12:26:00,
2013-06-10 06:31:00,54.8,42.4,30.00,SSE,160,0.0,1.0,63,0.00,,,0.00,32,LWC V2.00 B727,2013-06-10 12:31:00,
2013-06-10 06:36:00,55.2,42.8,30.00,SSE,160,0.0,0.0,63,0.00,,,0.00,42,LWC V2.00 B727,2013-06-10 12:36:00,
2013-06-10 06:41:00,55.7,43.3,30.00,SSE,161,0.0,1.0,63,0.00,,,0.00,56,LWC V2.00 B727,2013-06-10 12:41:00,
2013-06-10 06:46:00,56.5,44.1,30.01,SSE,162,0.0,1.0,63,0.00,,,0.00,70,LWC V2.00 B727,2013-06-10 12:46:00,
2013-06-10 06:51:00,57.3,44.4,30.01,SSE,165,1.0,2.0,62,0.00,,,0.00,86,LWC V2.00 B727,2013-06-10 12:51:00,
2013-06-10 06:56:00,58.1,44.7,30.00,SSE,165,0.0,3.0,61,0.00,,,0.00,105,LWC V2.00 B727,2013-06-10 12:56:00,
2013-06-10 07:01:00,59.0,45.6,30.01,SSE,166,2.0,3.0,61,0.00,,,0.00,125,LWC V2.00 B727,2013-06-10 13:01:00,
2013-06-10 07:06:00,59.6,45.7,30.01,SSE,167,0.0,1.0,60,0.00,,,0.00,146,LWC V2.00 B727,2013-06-10 13:06:00,
2013-06-10 07:11:00,60.5,45.6,30.00,SSE,167,0.0,1.0,58,0.00,,,0.00,169,LWC V2.00 B727,2013-06-10 13:11:00,
2013-06-10 07:16:00,61.4,46.5,30.00,SSE,167,0.0,0.0,58,0.00,,,0.00,190,LWC V2.00 B727,2013-06-10 13:16:00,
2013-06-10 07:21:00,62.3,46.9,30.00,SSE,167,0.0,0.0,57,0.00,,,0.00,207,LWC V2.00 B727,2013-06-10 13:21:00,
2013-06-10 07:26:00,63.1,48.5,30.00,SSE,167,0.0,0.0,59,0.00,,,0.00,229,LWC V2.00 B727,2013-06-10 13:26:00,
2013-06-10 07:31:00,63.9,49.3,30.00,SSE,167,0.0,0.0,59,0.00,,,0.00,248,LWC V2.00 B727,2013-06-10 13:31:00,
2013-06-10 07:36:00,64.9,48.3,30.00,SSE,167,0.0,0.0,55,0.00,,,0.00,265,LWC V2.00 B727,2013-06-10 13:36:00,
2013-06-10 07:41:00,65.8,47.7,30.00,SSE,167,0.0,0.0,52,0.00,,,0.00,283,LWC V2.00 B727,2013-06-10 13:41:00,
2013-06-10 07:46:00,66.9,49.7,30.00,SSE,167,0.0,0.0,54,0.00,,,0.00,302,LWC V2.00 B727,2013-06-10 13:46:00,
2013-06-10 07:51:00,67.9,49.6,30.00,SSE,165,0.0,1.0,52,0.00,,,0.00,322,LWC V2.00 B727,2013-06-10 13:51:00,
2013-06-10 07:56:00,68.9,49.5,30.00,SSE,166,1.0,1.0,50,0.00,,,0.00,338,LWC V2.00 B727,2013-06-10 13:56:00,
2013-06-10 08:01:00,69.8,49.8,30.00,SSE,159,0.0,2.0,49,0.00,,,0.00,353,LWC V2.00 B727,2013-06-10 14:01:00,
2013-06-10 08:06:00,70.6,49.4,30.00,ESE,106,1.0,2.0,47,0.00,,,0.00,374,LWC V2.00 B727,2013-06-10 14:06:00,
2013-06-10 08:11:00,71.4,50.1,30.00,NE,51,1.0,1.0,47,0.00,,,0.00,392,LWC V2.00 B727,2013-06-10 14:11:00,
2013-06-10 08:16:00,72.2,50.3,29.99,NE,50,0.0,2.0,46,0.00,,,0.00,411,LWC V2.00 B727,2013-06-10 14:16:00,
2013-06-10 08:21:00,72.8,50.2,29.99,NE,48,3.0,3.0,45,0.00,,,0.00,429,LWC V2.00 B727,2013-06-10 14:21:00,
2013-06-10 08:26:00,73.3,50.1,29.99,NE,47,0.0,1.0,44,0.00,,,0.00,446,LWC V2.00 B727,2013-06-10 14:26:00,
2013-06-10 08:31:00,73.8,49.3,29.99,NE,55,1.0,2.0,42,0.00,,,0.00,462,LWC V2.00 B727,2013-06-10 14:31:00,
2013-06-10 08:36:00,74.3,50.3,29.99,NE,34,0.0,3.0,43,0.00,,,0.00,480,LWC V2.00 B727,2013-06-10 14:36:00,
2013-06-10 08:41:00,74.8,52.0,29.99,NE,36,0.0,1.0,45,0.00,,,0.00,497,LWC V2.00 B727,2013-06-10 14:41:00,
2013-06-10 08:46:00,75.4,50.0,29.99,NE,36,2.0,3.0,41,0.00,,,0.00,513,LWC V2.00 B727,2013-06-10 14:46:00,
2013-06-10 08:51:00,76.0,51.2,29.99,NNE,19,2.0,4.0,42,0.00,,,0.00,531,LWC V2.00 B727,2013-06-10 14:51:00,
2013-06-10 08:56:00,76.4,48.2,29.99,SW,218,1.0,8.0,37,0.00,,,0.00,545,LWC V2.00 B727,2013-06-10 14:56:00,
2013-06-10 09:01:00,76.8,47.8,29.99,SW,225,0.0,6.0,36,0.00,,,0.00,563,LWC V2.00 B727,2013-06-10 15:01:00,
2013-06-10 09:06:00,77.3,47.5,29.98,NE,49,1.0,5.0,35,0.00,,,0.00,578,LWC V2.00 B727,2013-06-10 15:06:00,
2013-06-10 09:11:00,77.9,47.2,29.98,North,355,3.0,5.0,34,0.00,,,0.00,594,LWC V2.00 B727,2013-06-10 15:11:00,
2013-06-10 09:16:00,78.4,46.1,29.99,SW,226,6.0,6.0,32,0.00,,,0.00,612,LWC V2.00 B727,2013-06-10 15:16:00,
2013-06-10 09:21:00,78.7,46.3,29.99,NE,36,3.0,4.0,32,0.00,,,0.00,626,LWC V2.00 B727,2013-06-10 15:21:00,
2013-06-10 09:26:00,79.1,46.7,29.99,SW,229,2.0,4.0,32,0.00,,,0.00,643,LWC V2.00 B727,2013-06-10 15:26:00,
2013-06-10 09:31:00,79.5,46.2,29.99,WSW,244,5.0,10.0,31,0.00,,,0.00,659,LWC V2.00 B727,2013-06-10 15:31:00,
2013-06-10 09:36:00,79.6,47.1,29.99,NW,322,0.0,2.0,32,0.00,,,0.00,675,LWC V2.00 B727,2013-06-10 15:36:00,
2013-06-10 09:41:00,79.8,45.6,29.99,SSW,194,5.0,8.0,30,0.00,,,0.00,689,LWC V2.00 B727,2013-06-10 15:41:00,
2013-06-10 09:46:00,79.6,44.5,29.99,WSW,245,3.0,4.0,29,0.00,,,0.00,705,LWC V2.00 B727,2013-06-10 15:46:00,
2013-06-10 09:51:00,79.9,45.7,29.99,West,272,0.0,8.0,30,0.00,,,0.00,721,LWC V2.00 B727,2013-06-10 15:51:00,
2013-06-10 09:56:00,80.1,45.8,29.99,SW,236,1.0,4.0,30,0.00,,,0.00,735,LWC V2.00 B727,2013-06-10 15:56:00,
2013-06-10 10:01:00,80.6,46.3,29.99,NNW,342,3.0,4.0,30,0.00,,,0.00,751,LWC V2.00 B727,2013-06-10 16:01:00,
2013-06-10 10:06:00,81.0,48.3,29.98,SW,225,2.0,5.0,32,0.00,,,0.00,763,LWC V2.00 B727,2013-06-10 16:06:00,
2013-06-10 10:11:00,81.5,47.0,29.99,West,277,2.0,3.0,30,0.00,,,0.00,779,LWC V2.00 B727,2013-06-10 16:11:00,
2013-06-10 10:16:00,81.9,47.4,29.98,NNW,338,0.0,2.0,30,0.00,,,0.00,791,LWC V2.00 B727,2013-06-10 16:16:00,
2013-06-10 10:21:00,82.4,46.9,29.98,SW,219,0.0,2.0,29,0.00,,,0.00,803,LWC V2.00 B727,2013-06-10 16:21:00,
2013-06-10 10:26:00,82.7,49.0,29.98,NNW,329,2.0,4.0,31,0.00,,,0.00,810,LWC V2.00 B727,2013-06-10 16:26:00,
2013-06-10 10:31:00,83.3,48.6,29.97,SSW,210,0.0,3.0,30,0.00,,,0.00,831,LWC V2.00 B727,2013-06-10 16:31:00,
2013-06-10 10:36:00,83.1,46.6,29.98,SSW,212,4.0,8.0,28,0.00,,,0.00,844,LWC V2.00 B727,2013-06-10 16:36:00,
2013-06-10 10:41:00,83.2,45.7,29.97,WSW,240,2.0,7.0,27,0.00,,,0.00,858,LWC V2.00 B727,2013-06-10 16:41:00,
2013-06-10 10:46:00,83.4,45.9,29.97,WSW,241,0.0,7.0,27,0.00,,,0.00,867,LWC V2.00 B727,2013-06-10 16:46:00,
2013-06-10 10:51:00,83.6,44.0,29.97,WSW,239,1.0,5.0,25,0.00,,,0.00,875,LWC V2.00 B727,2013-06-10 16:51:00,
2013-06-10 10:56:00,84.0,44.4,29.97,WSW,244,6.0,8.0,25,0.00,,,0.00,896,LWC V2.00 B727,2013-06-10 16:56:00,
2013-06-10 11:01:00,84.4,46.7,29.97,SW,219,0.0,6.0,27,0.00,,,0.00,909,LWC V2.00 B727,2013-06-10 17:01:00,
2013-06-10 11:06:00,84.9,44.1,29.97,SSW,205,7.0,7.0,24,0.00,,,0.00,919,LWC V2.00 B727,2013-06-10 17:06:00,
2013-06-10 11:11:00,84.6,43.8,29.96,South,190,4.0,9.0,24,0.00,,,0.00,930,LWC V2.00 B727,2013-06-10 17:11:00,
2013-06-10 11:16:00,84.4,43.6,29.96,SSW,194,0.0,5.0,24,0.00,,,0.00,937,LWC V2.00 B727,2013-06-10 17:16:00,
2013-06-10 11:21:00,84.7,42.8,29.96,SW,233,6.0,10.0,23,0.00,,,0.00,940,LWC V2.00 B727,2013-06-10 17:21:00,
2013-06-10 11:26:00,84.8,42.9,29.96,SSW,198,5.0,8.0,23,0.00,,,0.00,960,LWC V2.00 B727,2013-06-10 17:26:00,
2013-06-10 11:31:00,85.5,43.4,29.96,WSW,251,5.0,10.0,23,0.00,,,0.00,965,LWC V2.00 B727,2013-06-10 17:31:00,
2013-06-10 11:36:00,86.1,41.6,29.96,WSW,240,4.0,8.0,21,0.00,,,0.00,967,LWC V2.00 B727,2013-06-10 17:36:00,
2013-06-10 11:41:00,86.2,41.7,29.95,SW,215,4.0,6.0,21,0.00,,,0.00,979,LWC V2.00 B727,2013-06-10 17:41:00,
2013-06-10 11:46:00,86.3,44.1,29.95,North,350,2.0,7.0,23,0.00,,,0.00,986,LWC V2.00 B727,2013-06-10 17:46:00,
2013-06-10 11:51:00,86.5,44.3,29.95,North,0,5.0,5.0,23,0.00,,,0.00,998,LWC V2.00 B727,2013-06-10 17:51:00,
2013-06-10 11:56:00,86.6,42.0,29.95,NNE,20,1.0,7.0,21,0.00,,,0.00,997,LWC V2.00 B727,2013-06-10 17:56:00,
2013-06-10 12:01:00,86.6,44.4,29.95,North,355,1.0,6.0,23,0.00,,,0.00,1030,LWC V2.00 B727,2013-06-10 18:01:00,
2013-06-10 12:06:00,86.5,40.6,29.94,NNW,330,4.0,6.0,20,0.00,,,0.00,207,LWC V2.00 B727,2013-06-10 18:06:00,
2013-06-10 12:11:00,86.1,42.8,29.94,NNW,347,0.0,7.0,22,0.00,,,0.00,139,LWC V2.00 B727,2013-06-10 18:11:00,
2013-06-10 12:16:00,85.6,41.2,29.94,North,349,4.0,4.0,21,0.00,,,0.00,125,LWC V2.00 B727,2013-06-10 18:16:00,
2013-06-10 12:22:00,85.1,45.3,29.93,NNE,26,0.0,1.0,25,0.00,,,0.00,1086,LWC V2.00 B727,2013-06-10 18:22:00,
2013-06-10 12:27:00,85.1,40.7,29.94,SW,221,4.0,4.0,21,0.00,,,0.00,1078,LWC V2.00 B727,2013-06-10 18:27:00,
2013-06-10 12:32:00,86.1,40.3,29.93,NW,314,0.0,5.0,20,0.00,,,0.00,1081,LWC V2.00 B727,2013-06-10 18:32:00,
2013-06-10 12:37:00,87.0,41.0,29.93,SE,126,2.0,2.0,20,0.00,,,0.00,1088,LWC V2.00 B727,2013-06-10 18:37:00,
2013-06-10 12:42:00,88.2,39.3,29.93,SSW,201,6.0,10.0,18,0.00,,,0.00,1104,LWC V2.00 B727,2013-06-10 18:42:00,
2013-06-10 12:47:00,88.5,40.9,29.92,WSW,248,3.0,8.0,19,0.00,,,0.00,1088,LWC V2.00 B727,2013-06-10 18:47:00,
2013-06-10 12:52:00,88.8,38.3,29.92,North,0,8.0,8.0,17,0.00,,,0.00,1065,LWC V2.00 B727,2013-06-10 18:52:00,
2013-06-10 12:57:00,88.5,36.6,29.92,North,5,4.0,9.0,16,0.00,,,0.00,1058,LWC V2.00 B727,2013-06-10 18:57:00,
2013-06-10 13:02:00,88.6,39.6,29.92,NNW,348,4.0,8.0,18,0.00,,,0.00,1063,LWC V2.00 B727,2013-06-10 19:02:00,
2013-06-10 13:07:00,88.9,38.4,29.91,NE,40,0.0,5.0,17,0.00,,,0.00,1048,LWC V2.00 B727,2013-06-10 19:07:00,
2013-06-10 13:12:00,89.4,37.3,29.92,North,351,5.0,7.0,16,0.00,,,0.00,1060,LWC V2.00 B727,2013-06-10 19:12:00,
2013-06-10 13:17:00,89.0,38.5,29.91,NNW,345,3.0,7.0,17,0.00,,,0.00,1127,LWC V2.00 B727,2013-06-10 19:17:00,
2013-06-10 13:22:00,89.0,40.0,29.91,NNE,17,4.0,6.0,18,0.00,,,0.00,1181,LWC V2.00 B727,2013-06-10 19:22:00,
2013-06-10 13:27:00,89.4,40.3,29.91,West,268,0.0,3.0,18,0.00,,,0.00,283,LWC V2.00 B727,2013-06-10 19:27:00,
2013-06-10 13:32:00,89.3,38.7,29.91,ESE,114,2.0,9.0,17,0.00,,,0.00,432,LWC V2.00 B727,2013-06-10 19:32:00,
2013-06-10 13:37:00,88.7,39.7,29.91,SW,234,8.0,8.0,18,0.00,,,0.00,580,LWC V2.00 B727,2013-06-10 19:37:00,
2013-06-10 13:42:00,88.5,38.1,29.91,SW,231,7.0,8.0,17,0.00,,,0.00,1222,LWC V2.00 B727,2013-06-10 19:42:00,
2013-06-10 13:47:00,89.3,38.7,29.90,WSW,252,6.0,12.0,17,0.00,,,0.00,1213,LWC V2.00 B727,2013-06-10 19:47:00,
2013-06-10 13:52:00,89.9,37.7,29.90,SW,216,3.0,8.0,16,0.00,,,0.00,687,LWC V2.00 B727,2013-06-10 19:52:00,
2013-06-10 13:57:00,88.5,38.1,29.90,SE,138,1.0,4.0,17,0.00,,,0.00,262,LWC V2.00 B727,2013-06-10 19:57:00,
2013-06-10 14:02:00,88.1,37.8,29.90,WSW,249,1.0,7.0,17,0.00,,,0.00,272,LWC V2.00 B727,2013-06-10 20:02:00,
2013-06-10 14:07:00,87.9,40.5,29.90,SSW,210,2.0,5.0,19,0.00,,,0.00,272,LWC V2.00 B727,2013-06-10 20:07:00,
2013-06-10 14:12:00,88.5,38.1,29.90,WSW,246,3.0,11.0,17,0.00,,,0.00,239,LWC V2.00 B727,2013-06-10 20:12:00,
2013-06-10 14:17:00,88.8,39.8,29.90,NNE,29,4.0,6.0,18,0.00,,,0.00,190,LWC V2.00 B727,2013-06-10 20:17:00,
2013-06-10 14:22:00,88.2,40.7,29.89,WSW,244,4.0,5.0,19,0.00,,,0.00,223,LWC V2.00 B727,2013-06-10 20:22:00,
2013-06-10 14:27:00,88.3,39.4,29.89,SW,214,8.0,12.0,18,0.00,,,0.00,1114,LWC V2.00 B727,2013-06-10 20:27:00,
2013-06-10 14:32:00,87.3,38.6,29.89,SW,214,3.0,5.0,18,0.00,,,0.00,232,LWC V2.00 B727,2013-06-10 20:32:00,
2013-06-10 14:37:00,88.7,43.7,29.89,SSW,202,5.0,6.0,21,0.00,,,0.00,1179,LWC V2.00 B727,2013-06-10 20:37:00,
2013-06-10 14:42:00,89.9,42.1,29.89,SW,225,4.0,7.0,19,0.00,,,0.00,1120,LWC V2.00 B727,2013-06-10 20:42:00,
2013-06-10 14:47:00,91.0,43.0,29.89,WSW,246,0.0,8.0,19,0.00,,,0.00,225,LWC V2.00 B727,2013-06-10 20:47:00,
2013-06-10 14:52:00,90.8,41.4,29.88,ENE,61,2.0,6.0,18,0.00,,,0.00,1021,LWC V2.00 B727,2013-06-10 20:52:00,
2013-06-10 14:57:00,91.0,38.5,29.88,WSW,240,5.0,14.0,16,0.00,,,0.00,1037,LWC V2.00 B727,2013-06-10 20:57:00,
2013-06-10 15:02:00,90.4,39.6,29.89,SSW,209,17.0,22.0,17,0.00,,,0.00,1035,LWC V2.00 B727,2013-06-10 21:02:00,
2013-06-10 15:07:00,89.2,38.7,29.89,WSW,241,3.0,12.0,17,0.00,,,0.00,1027,LWC V2.00 B727,2013-06-10 21:07:00,
2013-06-10 15:12:00,87.9,37.6,29.88,SSW,213,3.0,6.0,17,0.00,,,0.00,169,LWC V2.00 B727,2013-06-10 21:12:00,
2013-06-10 15:17:00,86.4,36.4,29.88,SW,216,4.0,6.0,17,0.00,,,0.00,179,LWC V2.00 B727,2013-06-10 21:17:00,
2013-06-10 15:22:00,85.4,41.0,29.88,WSW,242,7.0,7.0,21,0.00,,,0.00,225,LWC V2.00 B727,2013-06-10 21:22:00,
2013-06-10 15:27:00,86.2,39.1,29.88,NW,304,0.0,3.0,19,0.00,,,0.00,294,LWC V2.00 B727,2013-06-10 21:27:00,
2013-06-10 15:32:00,87.0,38.3,29.88,NNE,17,2.0,4.0,18,0.00,,,0.00,229,LWC V2.00 B727,2013-06-10 21:32:00,
2013-06-10 15:37:00,86.9,41.0,29.88,North,350,1.0,5.0,20,0.00,,,0.00,237,LWC V2.00 B727,2013-06-10 21:37:00,
2013-06-10 15:42:00,86.8,39.6,29.88,NW,310,3.0,6.0,19,0.00,,,0.00,352,LWC V2.00 B727,2013-06-10 21:42:00,
2013-06-10 15:47:00,87.5,38.7,29.87,North,0,3.0,7.0,18,0.00,,,0.00,930,LWC V2.00 B727,2013-06-10 21:47:00,
2013-06-10 15:52:00,87.4,41.4,29.87,WSW,244,3.0,5.0,20,0.00,,,0.00,673,LWC V2.00 B727,2013-06-10 21:52:00,
2013-06-10 15:57:00,87.5,41.5,29.87,NNE,21,1.0,6.0,20,0.00,,,0.00,896,LWC V2.00 B727,2013-06-10 21:57:00,
2013-06-10 16:02:00,87.6,38.8,29.87,North,5,6.0,9.0,18,0.00,,,0.00,904,LWC V2.00 B727,2013-06-10 22:02:00,
2013-06-10 16:07:00,87.6,38.8,29.87,North,5,5.0,9.0,18,0.00,,,0.00,875,LWC V2.00 B727,2013-06-10 22:07:00,
2013-06-10 16:12:00,88.1,39.2,29.87,NE,44,0.0,6.0,18,0.00,,,0.00,838,LWC V2.00 B727,2013-06-10 22:12:00,
2013-06-10 16:17:00,88.4,38.0,29.87,SSW,192,1.0,10.0,17,0.00,,,0.00,860,LWC V2.00 B727,2013-06-10 22:17:00,
2013-06-10 16:22:00,87.9,36.1,29.86,SSW,202,8.0,21.0,16,0.00,,,0.00,842,LWC V2.00 B727,2013-06-10 22:22:00,
2013-06-10 16:27:00,87.7,38.9,29.87,West,277,9.0,11.0,18,0.00,,,0.00,582,LWC V2.00 B727,2013-06-10 22:27:00,
2013-06-10 16:32:00,87.5,40.1,29.87,North,355,4.0,5.0,19,0.00,,,0.00,425,LWC V2.00 B727,2013-06-10 22:32:00,
2013-06-10 16:37:00,87.1,38.4,29.87,WSW,238,3.0,6.0,18,0.00,,,0.00,338,LWC V2.00 B727,2013-06-10 22:37:00,
2013-06-10 16:42:00,86.6,39.4,29.87,NNE,26,2.0,9.0,19,0.00,,,0.00,294,LWC V2.00 B727,2013-06-10 22:42:00,
2013-06-10 16:47:00,86.2,39.1,29.87,ENE,76,2.0,4.0,19,0.00,,,0.00,223,LWC V2.00 B727,2013-06-10 22:47:00,
2013-06-10 16:52:00,85.4,38.4,29.87,North,11,5.0,7.0,19,0.00,,,0.00,257,LWC V2.00 B727,2013-06-10 22:52:00,
2013-06-10 16:57:00,84.7,37.9,29.87,North,0,5.0,5.0,19,0.00,,,0.00,251,LWC V2.00 B727,2013-06-10 22:57:00,
2013-06-10 17:02:00,84.2,37.4,29.86,North,9,3.0,5.0,19,0.00,,,0.00,237,LWC V2.00 B727,2013-06-10 23:02:00,
2013-06-10 17:07:00,83.9,38.5,29.86,North,0,0.0,1.0,20,0.00,,,0.00,308,LWC V2.00 B727,2013-06-10 23:07:00,
2013-06-10 17:12:00,84.0,41.0,29.86,NNW,345,2.0,4.0,22,0.00,,,0.00,339,LWC V2.00 B727,2013-06-10 23:12:00,
2013-06-10 17:17:00,84.1,39.9,29.86,NNE,23,3.0,4.0,21,0.00,,,0.00,334,LWC V2.00 B727,2013-06-10 23:17:00,
2013-06-10 17:22:00,84.1,37.4,29.86,North,11,2.0,4.0,19,0.00,,,0.00,429,LWC V2.00 B727,2013-06-10 23:22:00,
2013-06-10 17:27:00,84.2,38.8,29.86,SW,226,5.0,5.0,20,0.00,,,0.00,427,LWC V2.00 B727,2013-06-10 23:27:00,
2013-06-10 17:32:00,84.5,40.3,29.86,North,355,1.0,4.0,21,0.00,,,0.00,381,LWC V2.00 B727,2013-06-10 23:32:00,
2013-06-10 17:37:00,84.7,40.4,29.85,North,355,1.0,1.0,21,0.00,,,0.00,301,LWC V2.00 B727,2013-06-10 23:37:00,
2013-06-10 17:42:00,84.7,37.9,29.85,North,5,2.0,3.0,19,0.00,,,0.00,306,LWC V2.00 B727,2013-06-10 23:42:00,
2013-06-10 17:47:00,84.4,36.2,29.84,SSW,213,0.0,6.0,18,0.00,,,0.00,272,LWC V2.00 B727,2013-06-10 23:47:00,
2013-06-10 17:52:00,84.1,39.9,29.85,North,350,0.0,3.0,21,0.00,,,0.00,135,LWC V2.00 B727,2013-06-10 23:52:00,
2013-06-10 17:57:00,83.7,38.3,29.85,SW,230,0.0,5.0,20,0.00,,,0.00,120,LWC V2.00 B727,2013-06-10 23:57:00,
2013-06-10 18:02:00,83.3,40.5,29.85,WSW,240,2.0,4.0,22,0.00,,,0.00,116,LWC V2.00 B727,2013-06-11 00:02:00,
2013-06-10 18:07:00,82.9,37.7,29.84,NNE,22,0.0,3.0,20,0.00,,,0.00,113,LWC V2.00 B727,2013-06-11 00:07:00,
2013-06-10 18:12:00,82.7,38.8,29.84,NNE,17,0.0,1.0,21,0.00,,,0.00,105,LWC V2.00 B727,2013-06-11 00:12:00,
2013-06-10 18:17:00,82.3,38.4,29.85,North,355,0.0,1.0,21,0.00,,,0.00,97,LWC V2.00 B727,2013-06-11 00:17:00,
2013-06-10 18:22:00,82.0,39.4,29.85,North,355,0.0,0.0,22,0.00,,,0.00,91,LWC V2.00 B727,2013-06-11 00:22:00,
2013-06-10 18:27:00,81.7,41.4,29.85,NNW,338,0.0,1.0,24,0.00,,,0.00,88,LWC V2.00 B727,2013-06-11 00:27:00,
2013-06-10 18:32:00,81.3,36.4,29.84,NNE,24,2.0,5.0,20,0.00,,,0.00,84,LWC V2.00 B727,2013-06-11 00:32:00,
2013-06-10 18:37:00,81.1,37.4,29.84,NNE,24,0.0,1.0,21,0.00,,,0.00,81,LWC V2.00 B727,2013-06-11 00:37:00,
2013-06-10 18:42:00,80.8,38.4,29.84,WSW,250,0.0,0.0,22,0.00,,,0.00,74,LWC V2.00 B727,2013-06-11 00:42:00,
2013-06-10 18:47:00,80.6,40.4,29.84,WSW,250,0.0,1.0,24,0.00,,,0.00,70,LWC V2.00 B727,2013-06-11 00:47:00,
2013-06-10 18:52:00,80.3,41.2,29.85,WSW,250,0.0,0.0,25,0.00,,,0.00,65,LWC V2.00 B727,2013-06-11 00:52:00,
2013-06-10 18:57:00,79.7,44.6,29.85,WSW,250,0.0,0.0,29,0.00,,,0.00,58,LWC V2.00 B727,2013-06-11 00:57:00,
2013-06-10 19:02:00,78.7,36.6,29.85,WSW,251,2.0,2.0,22,0.00,,,0.00,51,LWC V2.00 B727,2013-06-11 01:02:00,
2013-06-10 19:07:00,78.2,37.4,29.85,WSW,250,0.0,0.0,23,0.00,,,0.00,46,LWC V2.00 B727,2013-06-11 01:07:00,
2013-06-10 19:12:00,77.6,41.9,29.85,WSW,250,0.0,0.0,28,0.00,,,0.00,33,LWC V2.00 B727,2013-06-11 01:12:00,
2013-06-10 19:17:00,76.8,37.3,29.85,WSW,250,0.0,1.0,24,0.00,,,0.00,28,LWC V2.00 B727,2013-06-11 01:17:00,
2013-06-10 19:22:00,76.2,36.8,29.85,SW,236,0.0,0.0,24,0.00,,,0.00,25,LWC V2.00 B727,2013-06-11 01:22:00,
2013-06-10 19:27:00,75.8,34.2,29.85,North,11,0.0,1.0,22,0.00,,,0.00,21,LWC V2.00 B727,2013-06-11 01:27:00,
2013-06-10 19:32:00,75.4,36.1,29.85,North,11,0.0,0.0,24,0.00,,,0.00,19,LWC V2.00 B727,2013-06-11 01:32:00,
2013-06-10 19:37:00,74.8,36.6,29.85,North,11,0.0,1.0,25,0.00,,,0.00,19,LWC V2.00 B727,2013-06-11 01:37:00,
2013-06-10 19:42:00,74.1,38.0,29.85,North,11,1.0,1.0,27,0.00,,,0.00,18,LWC V2.00 B727,2013-06-11 01:42:00,
2013-06-10 19:47:00,73.3,37.3,29.85,NNE,14,0.0,1.0,27,0.00,,,0.00,14,LWC V2.00 B727,2013-06-11 01:47:00,
2013-06-10 19:52:00,72.5,36.6,29.85,NNE,13,2.0,2.0,27,0.00,,,0.00,11,LWC V2.00 B727,2013-06-11 01:52:00,
2013-06-10 19:57:00,71.6,36.8,29.86,NNE,25,0.0,1.0,28,0.00,,,0.00,7,LWC V2.00 B727,2013-06-11 01:57:00,
2013-06-10 20:02:00,70.7,36.0,29.86,NNE,29,2.0,2.0,28,0.00,,,0.00,5,LWC V2.00 B727,2013-06-11 02:02:00,
2013-06-10 20:07:00,70.1,35.5,29.86,NE,40,0.0,0.0,28,0.00,,,0.00,5,LWC V2.00 B727,2013-06-11 02:07:00,
2013-06-10 20:12:00,69.8,35.2,29.86,ENE,69,0.0,1.0,28,0.00,,,0.00,0,LWC V2.00 B727,2013-06-11 02:12:00,
2013-06-10 20:17:00,69.4,34.0,29.86,East,101,0.0,2.0,27,0.00,,,0.00,0,LWC V2.00 B727,2013-06-11 02:17:00,
2013-06-10 20:22:00,69.0,34.5,29.87,ESE,110,0.0,2.0,28,0.00,,,0.00,0,LWC V2.00 B727,2013-06-11 02:22:00,
2013-06-10 20:27:00,68.7,33.4,29.87,SSE,166,3.0,3.0,27,0.00,,,0.00,0,LWC V2.00 B727,2013-06-11 02:27:00,
2013-06-10 20:32:00,68.6,33.3,29.87,South,174,0.0,3.0,27,0.00,,,0.00,0,LWC V2.00 B727,2013-06-11 02:32:00,
2013-06-10 20:37:00,68.5,33.2,29.88,SSE,166,3.0,3.0,27,0.00,,,0.00,0,LWC V2.00 B727,2013-06-11 02:37:00,
2013-06-10 20:42:00,68.6,33.3,29.89,SW,234,3.0,4.0,27,0.00,,,0.00,0,LWC V2.00 B727,2013-06-11 02:42:00,
2013-06-10 20:47:00,70.7,32.1,29.89,SSW,210,5.0,13.0,24,0.00,,,0.00,0,LWC V2.00 B727,2013-06-11 02:47:00,
2013-06-10 20:52:00,73.5,32.3,29.88,SSE,168,0.0,4.0,22,0.00,,,0.00,0,LWC V2.00 B727,2013-06-11 02:52:00,
2013-06-10 20:57:00,74.6,33.2,29.88,North,0,0.0,5.0,22,0.00,,,0.00,0,LWC V2.00 B727,2013-06-11 02:57:00,
2013-06-10 21:02:00,74.8,35.6,29.88,SW,219,3.0,6.0,24,0.00,,,0.00,0,LWC V2.00 B727,2013-06-11 03:02:00,
2013-06-10 21:07:00,74.9,33.5,29.88,SW,223,0.0,2.0,22,0.00,,,0.00,0,LWC V2.00 B727,2013-06-11 03:07:00,
2013-06-10 21:12:00,74.9,34.6,29.88,SW,223,0.0,0.0,23,0.00,,,0.00,0,LWC V2.00 B727,2013-06-11 03:12:00,
2013-06-10 21:17:00,74.8,37.6,29.88,SW,223,0.0,0.0,26,0.00,,,0.00,0,LWC V2.00 B727,2013-06-11 03:17:00,
2013-06-10 21:22:00,74.1,35.0,29.89,SSW,192,7.0,7.0,24,0.00,,,0.00,0,LWC V2.00 B727,2013-06-11 03:22:00,
2013-06-10 21:27:00,73.0,35.1,29.89,SSE,167,3.0,3.0,25,0.00,,,0.00,0,LWC V2.00 B727,2013-06-11 03:27:00,
2013-06-10 21:30:00,72.4,34.6,29.89,South,172,1.0,8.0,25,0.00,,,0.00,0,LWC V2.00 B727,2013-06-11 03:30:00,
2013-06-10 21:32:00,71.6,33.9,29.89,SSE,156,1.0,5.0,25,0.00,,,0.00,0,LWC V2.00 B727,2013-06-11 03:32:00,
2013-06-10 21:40:00,72.2,34.4,29.89,SSE,158,1.0,8.0,25,0.00,,,0.00,0,LWC V2.00 B727,2013-06-11 03:40:00,
2013-06-10 21:50:00,72.2,34.4,29.89,SSE,158,1.0,8.0,25,0.00,,,0.00,0,LWC V2.00 B727,2013-06-11 03:50:00,
2013-06-10 22:00:00,69.2,35.6,29.91,South,180,2.0,7.0,29,0.00,,,0.00,0,LWC V2.00 B727,2013-06-11 04:00:00,
2013-06-10 22:10:00,69.2,35.6,29.91,South,180,2.0,7.0,29,0.00,,,0.00,0,LWC V2.00 B727,2013-06-11 04:10:00,
2013-06-10 22:20:00,69.2,35.6,29.91,South,180,2.0,7.0,29,0.00,,,0.00,0,LWC V2.00 B727,2013-06-11 04:20:00,
2013-06-10 22:30:00,67.4,34.0,29.92,SE,135,0.0,6.0,29,0.00,,,0.00,0,LWC V2.00 B727,2013-06-11 04:30:00,
2013-06-10 22:40:00,67.4,34.0,29.92,SE,135,0.0,6.0,29,0.00,,,0.00,0,LWC V2.00 B727,2013-06-11 04:40:00,
2013-06-10 22:50:00,67.4,34.0,29.92,SE,135,0.0,6.0,29,0.00,,,0.00,0,LWC V2.00 B727,2013-06-11 04:50:00,
2013-06-10 23:00:00,65.6,34.1,29.92,South,180,0.0,4.0,31,0.00,,,0.00,0,LWC V2.00 B727,2013-06-11 05:00:00,
2013-06-10 23:10:00,65.6,34.1,29.92,South,180,0.0,4.0,31,0.00,,,0.00,0,LWC V2.00 B727,2013-06-11 05:10:00,
2013-06-10 23:20:00,65.6,34.1,29.92,South,180,0.0,4.0,31,0.00,,,0.00,0,LWC V2.00 B727,2013-06-11 05:20:00,
2013-06-10 23:30:00,70.1,34.6,29.92,South,180,1.0,11.0,27,0.00,,,0.00,0,LWC V2.00 B727,2013-06-11 05:30:00,
2013-06-10 23:40:00,70.1,34.6,29.92,South,180,1.0,11.0,27,0.00,,,0.00,0,LWC V2.00 B727,2013-06-11 05:40:00,
2013-06-10 23:50:00,70.1,34.6,29.92,South,180,1.0,11.0,27,0.00,,,0.00,0,LWC V2.00 B727,2013-06-11 05:50:00,